Regional Weather Roundup
Issued by NWS Goodland, KS

Home | Current Version | Previous Version | Text Only | Print | Product List | Glossary Off
Versions: 1 2 3 4 5 6 7 8 9 10 11 12 13 14 15 16 17 18 19 20 21 22 23 24 25 26 27 28 29 30 31 32 33 34 35 36 37 38 39 40 41 42 43 44 45 46 47 48 49 50

000
ASUS43 KGLD 291208
RWRGLD

GOODLAND FORECAST AREA HOURLY WEATHER ROUNDUP
NATIONAL WEATHER SERVICE GOODLAND KS
600 AM MDT WED MAR 29 2017

...OFFICIAL OBSERVATIONS...

CITY           SKY/WX    TMP DP  RH WIND       PRES   REMARKS
GOODLAND KS    CLOUDY    39  38  96 N17G28    29.95F
HILL CITY KS   LGT RAIN  43  43 100 N24G30    29.94R FOG
IMPERIAL NEB   CLOUDY    41  39  93 N16       30.03S FOG
MCCOOK NEB     CLOUDY    42  41  96 NE17      29.98F
AKRON CO       LGT RAIN  35  34  96 N12       30.04F FOG
BURLINGTON CO  LGT RAIN  38  37  97 N16G26    29.97S FOG
LIMON CO       CLOUDY    34  34 100 N14       30.02R FOG
$$

...UNOFFICIAL OBSERVATIONS...

CITY           SKY/WX    TMP DP  RH WIND       PRES   REMARKS
NORTON KS      LGT RAIN  41  37  87 N16       29.95S
SHARON SPRINGS   N/A     39  38  97 NE14        N/A
TRENTON NEB      N/A     41  32  70 N8          N/A
KIT CARSON CO    N/A     36  33  90 MISG        N/A
YUMA CO        DRIZZLE   36  34  93 N15       30.03F
$$




USA.gov is the U.S. government's official web portal to all federal, state and local government web resources and services.